THOR ABLESTAR DEB, 152

Orbit data source: Space-Track

THOR ABLESTAR DEB, 152 is space debris in LEO originally from a launch on Thu, 29 Jun 1961 UTC launched from the Air Force Eastern Test Range (AFETR). Debris objects in space refer to the collection of defunct objects orbiting the Earth. Examples of debris include non-operational satellites, rocket bodies, and fragments generated from explosions, collisions, or faulty payload assembly.

Loading next visibility...
Identifier
152, 1961-015AN
Orbit
LEO
Country
Flag of USUS
Related business
Manufacturer
Unknown
Mission
Spacecraft
Bus & Motor
Unknown
Mass
Unknown
Launch date (UTC)
1961-06-29 (65 years ago)
Launch vehicle
Unknown
Launch site
Air Force Eastern Test Range (AFETR)
Object type
Payload
Rocket body
Debris
Shape & HBR
Unknown shape, 0.2 m
Radar Cross Section
Medium (>0.1 m² and <1 m²)

Expand to show TLE details & history
Last TLE update: 2 days ago

TLE from 2 days ago
0 THOR ABLESTAR DEB
1 00152U 61015AN  26173.43924070  .00000033  00000-0  57058-4 0  9994
2 00152  66.5941 306.0568 0152090 195.6641 163.9716 14.11537206326822
Epoch: 2026-06-22T10:32Z
TLE epoch observation values (Epoch: 2026-06-22T10:32:30.396Z)
Latitude
0.00002°
Longitude
-122.69498°
Altitude
962.053 km
Speed
7.317 km/s
True Right ascension
20h 24m 13s
True Declination
0° 00' 00"
Sunlit
Object was in full shadow at epoch
Visualization orbit readout
Latitude
Unknown
Longitude
Unknown
Altitude
Unknown
Speed
Unknown
Apparent Right ascension
Unknown
Apparent Declination
Unknown
Sunlit
N/A
Visualization observer readout
Local Sidereal Time
14:45:45
Azimuth
Unknown
Elevation
Unknown
Doppler factor
Unknown
Orbital elements
Apogee altitude
962.488 km
Perigee altitude
742.546 km
Semi-major axis
7,230.654 km
Eccentricity
0.01521
Inclination
66.5941°
RAAN
306.0568°
Arg. of periapsis
195.6641°
True anomaly
164.44417°
Mean anomaly
163.9716°
Eccentric anomaly
164.20874°
Mean motion
3.53002 °/min
Orbital period
101.98 mins
BSTAR
0.000057058
Loading maneuver chart data...
Computing Atmospheric mass density...

Documentation

Showing up to 5 results
|